Location: *
(42.0175°N, 9.4056°E)
Time: 23:00:03
(UTC+00:00)

H-2A R/B - Pass Details

Date: 25 August 2019
Orbit: 734 x 837 km, 98.3° (Epoch: 22 September)

Event Time Altitude Azimuth Distance (km) Brightness Sun altitude
Exits shadow 19:47:34 10° 181° (S) 2,300 4.2 -17.6°
Reaches altitude 10° 19:47:37 10° 182° (S) 2,278 4.1 -17.7°
Maximum altitude 19:52:31 55° 259° (W) 894 2.5 -18.4°
Drops below altitude 10° 19:57:22 10° 338° (NNW) 2,253 5.3 -19.2°
Sets 19:59:42 0° 343° (NNW) 3,175 6.1 -19.5°
